カタログに戻る

TRANSIT 5B-1 DEB

運用中PO
NORAD 3166·DEBRIS·🇺🇸 United States

打ち上げ Sep 28, 1963 から Vandenberg Space Force Base

Loading…

次のパス (今後24時間)

TLE

最新Source: Space-Track

元期: Sep 14, 2026, 11:37 UTC

1 03166U 63038H   26257.48469979  .00000069  00000-0  99984-4 0  9992
2 03166  89.9673 332.6904 0043327 118.9173 255.9916 13.44984217603599

AllMySatでTRANSIT 5B-1 DEBをリアルタイム追跡

Download on the App Store